COSMOS 249 DEB, 3506

Orbit data source: Space-Track

COSMOS 249 DEB, 3506 is space debris in LEO originally from a launch on Sun, 20 Oct 1968 UTC launched from the Tyuratam Missile And Space Complex (TTMTR). Debris objects in space refer to the collection of defunct objects orbiting the Earth. Examples of debris include non-operational satellites, rocket bodies, and fragments generated from explosions, collisions, or faulty payload assembly.

Loading next visibility...
Identifier
3506, 1968-091C
Orbit
LEO
Country
Flag of CISCIS
Related business
Manufacturer
Unknown
Mission
Spacecraft
Bus & Motor
Unknown
Mass
Unknown
Launch date (UTC)
1968-10-20 (57 years ago)
Launch vehicle
Unknown
Launch site
Tyuratam Missile And Space Complex (TTMTR)
Object type
Payload
Rocket body
Debris
Shape & HBR
Unknown shape, 0.6 m
Radar Cross Section
Medium (>0.1 m² and <1 m²)

Expand to show TLE details & history
Last TLE update: 11 hours ago

TLE from 11 hours ago
0 COSMOS 249 DEB
1 03506U 68091C   25309.12049596  .00000416  00000-0  23506-3 0  9993
2 03506  62.3661  90.8591 0949130 218.7534 134.1571 12.90985270677553
Epoch: 2025-11-05T02:53Z
TLE epoch observation values (Epoch: 2025-11-05T02:53:30.850Z)
Latitude
-0.00003°
Longitude
2.88282°
Altitude
1,839.039 km
Speed
6.717 km/s
True Right ascension
06h 03m 26s
True Declination
0° 00' 00"
Sunlit
Object was in daylight at epoch
Visualization orbit readout
Latitude
Unknown
Longitude
Unknown
Altitude
Unknown
Speed
Unknown
Apparent Right ascension
Unknown
Apparent Declination
Unknown
Sunlit
N/A
Visualization observer readout
Local Sidereal Time
09:48:20
Azimuth
Unknown
Elevation
Unknown
Doppler factor
Unknown
Orbital elements
Apogee altitude
2,025.021 km
Perigee altitude
568.158 km
Semi-major axis
7,674.726 km
Eccentricity
0.09491
Inclination
62.3661°
RAAN
90.8591°
Arg. of periapsis
218.7534°
True anomaly
141.34411°
Mean anomaly
134.1571°
Eccentric anomaly
137.80934°
Mean motion
3.22811 °/min
Orbital period
111.52 mins
BSTAR
0.00023506
Loading maneuver chart data...
Computing Atmospheric mass density...

Documentation

Showing up to 5 results
|